Location: Borojevi?i
(45.0486°N, 16.2297°E)
Time: 00:10:31
(UTC+00:00)

Cosmos 389 Rocket - Pass Details

Date: 08 August 2020
Orbit: 443 x 475 km, 81.1° (Epoch: 23 September)

Event Time Altitude Azimuth Distance (km) Brightness Sun altitude
Rises 19:15:26 0° 350° (N) 2,454 6.9 -10.6°
Reaches altitude 10° 19:17:30 10° 351° (N) 1,580 5.8 -10.9°
Maximum altitude 19:20:57 84° 78° (ENE) 457 2.3 -11.4°
Enters shadow 19:24:06 12° 168° (SSE) 1,458 4.5 -11.8°
